User: anonymous   Login
Location: Nelson
(41.2830°S, 173.2830°E)
Time: 13:13:20
(UTC+13:00)
Language:

Cosmos 1939 Rocket - Orbit

View from above orbital plane
View from above orbital plane
View from above satellite
View from above satellite

Ground track
Ground track

The orbit data is extracted from the following two-line orbital elements,

1 19046U 88032B   19077.50798737  .00000829  00000-0  65980-4 0  9992
2 19046  97.4479 112.6883 0036736 320.9443  38.9131 15.02547448668635
Epoch (UTC): 18 March 2019 12:11:30
Eccentricity: 0.0036736
inclination: 97.4479°
perigee height: 533 km
apogee height: 584 km
right ascension of ascending node: 112.6883°
argument of perigee: 320.9443°
revolutions per day: 15.02547448
mean anomaly at epoch: 38.9131°
orbit number at epoch: 66863

The dashed part of the orbit path shows where the satellite is in the earth's shadow,  

DLR